This is the latest recevied weather packets stored in our database for station/object SA3PJN-WX. If no packets are shown the sender has not sent any weather packets the latest 10 day(s).
| Time | Temp. | Humidity | Pressure | Rain* | Wind** | Luminosity | Snow |
|---|---|---|---|---|---|---|---|
| 1778264118 | 12.22° C | 36% | 975.6 hPa | - | - | - | - |
| 1778263818 | 12.78° C | 35% | 975.6 hPa | - | - | - | - |
| 1778263518 | 13.33° C | 35% | 975.6 hPa | - | - | - | - |
| 1778263218 | 13.33° C | 32% | 975.6 hPa | - | - | - | - |
| 1778262918 | 13.33° C | 32% | 975.5 hPa | - | - | - | - |
| 1778262588 | 13.89° C | 33% | 975.5 hPa | - | - | - | - |
| 1778262288 | 13.89° C | 32% | 975.3 hPa | - | - | - | - |
| 1778261988 | 13.89° C | 32% | 975.5 hPa | - | - | - | - |
| 1778261688 | 13.89° C | 32% | 975.5 hPa | - | - | - | - |
| 1778261388 | 14.44° C | 31% | 975.4 hPa | - | - | - | - |
| 1778261088 | 14.44° C | 30% | 975.4 hPa | - | - | - | - |
| 1778260788 | 14.44° C | 30% | 975.3 hPa | - | - | - | - |
| 1778260488 | 14.44° C | 29% | 975.3 hPa | - | - | - | - |
| 1778260188 | 14.44° C | 30% | 975.4 hPa | - | - | - | - |
| 1778259888 | 14.44° C | 28% | 975.4 hPa | - | - | - | - |
| 1778259558 | 15° C | 30% | 975.4 hPa | - | - | - | - |
| 1778259258 | 15° C | 30% | 975.4 hPa | - | - | - | - |
| 1778258958 | 15° C | 29% | 975.4 hPa | - | - | - | - |
| 1778258658 | 15° C | 28% | 975.6 hPa | - | - | - | - |
| 1778258328 | 15.56° C | 30% | 975.6 hPa | - | - | - | - |
| 1778257998 | 15° C | 29% | 975.6 hPa | - | - | - | - |
| 1778257698 | 15° C | 28% | 975.6 hPa | - | - | - | - |
| 1778257398 | 15° C | 29% | 975.6 hPa | - | - | - | - |
| 1778257097 | 15° C | 29% | 975.5 hPa | - | - | - | - |
| 1778256797 | 15.56° C | 28% | 975.5 hPa | - | - | - | - |
* Rain since midnight (hover to see other rain measurements)
** Current wind speed in m/s (hover to see current wind gust speed)